Kalaeloa, HI

10:21 PM HST on October 17, 2017 (GMT -1000)
Kalaeloa (John Rodgers Field)

Weather History for PHJR - March, 2012

Change the Weather History Date:

Friday, March 9, 2012

  Actual Average (PHHI) Record (PHHI)
Temperature  
Mean Temperature 68 °F -  
Max Temperature 73 °F 75 °F 80 °F (1998)
Min Temperature 64 °F 60 °F 55 °F (2015)
Cooling Degree Days 4    
Growing Degree Days 18 (Base 50)    
Moisture  
Dew Point 64 °F    
Average Humidity 82    
Maximum Humidity 94    
Minimum Humidity 71    
Precipitation  
Precipitation 0.18 in - - ()
Sea Level Pressure  
Sea Level Pressure 30.04 in    
Wind  
Wind Speed 3 mph (NNE)    
Max Wind Speed 20 mph    
Max Gust Speed 17 mph    
Visibility 10 miles    
Events Rain    
Averages and records for this station are not official NWS values.
T = Trace of Precipitation, MM = Missing Value Source: NWS Daily Summary

Daily Weather History Graph

Daily Weather History Graph

Search for Another Location

Airport or City:

Trip Planner

Search our weather history database for the weather conditions in past years. The results will help you decide how hot, cold, wet, or windy it might be!

Date:

Astronomy

Mar. 09, 2012 Rise Set
Actual Time 6:45 AM HST 6:39 PM HST
Civil Twilight 6:23 AM HST 7:02 PM HST
Nautical Twilight 5:57 AM HST 7:27 PM HST
Astronomical Twilight 5:31 AM HST 7:53 PM HST
Moon 8:27 PM HST (3/9) 7:31 AM HST (3/9)
Length of Visible Light 12h 38m
Length of Day
11h 54m
Full, 97% of the Moon is Illuminated
Mar 9
Full
Mar 14
Last Quarter
Mar 22
New
Mar 30
First Quarter
Apr 6
Full

Hourly Weather History & Observations

Time (HST) Temp. Dew Point Humidity Pressure Visibility Wind Dir Wind Speed Gust Speed Precip Events Conditions
12:49 AM 69.8 °F 62.6 °F 78% 30.03 in 10.0 mi Calm Calm - N/A   Partly Cloudy
12:53 AM 69.1 °F 63.0 °F 81% 30.05 in 10.0 mi Calm Calm - N/A   Partly Cloudy
1:53 AM 70.0 °F 62.1 °F 76% 30.03 in 10.0 mi Variable 5.8 mph - N/A   Overcast
2:53 AM 69.1 °F 63.0 °F 81% 30.02 in 10.0 mi ENE 3.5 mph - N/A   Partly Cloudy
3:53 AM 68.0 °F 62.1 °F 81% 30.00 in 10.0 mi Variable 3.5 mph - N/A   Partly Cloudy
4:53 AM 66.9 °F 63.0 °F 87% 30.00 in 10.0 mi Calm Calm - N/A   Mostly Cloudy
5:53 AM 66.9 °F 62.1 °F 84% 30.00 in 10.0 mi Calm Calm - N/A   Partly Cloudy
6:53 AM 66.9 °F 63.0 °F 87% 30.03 in 10.0 mi Calm Calm - N/A   Overcast
7:53 AM 64.9 °F 62.1 °F 90% 30.04 in 10.0 mi East 3.5 mph - 0.03 in Rain Light Rain
8:01 AM 64.4 °F 62.6 °F 94% 30.02 in 10.0 mi Calm Calm - N/A   Overcast
8:53 AM 66.0 °F 63.0 °F 90% 30.06 in 10.0 mi Variable 3.5 mph - N/A   Unknown
9:53 AM 68.0 °F 62.1 °F 81% 30.08 in 10.0 mi West 13.8 mph - 0.00 in Rain Light Rain
10:53 AM 68.0 °F 64.0 °F 87% 30.08 in 10.0 mi WNW 19.6 mph - 0.03 in Rain Light Rain
11:53 AM 71.1 °F 64.0 °F 78% 30.06 in 10.0 mi Variable 3.5 mph - 0.05 in Rain Light Rain
12:53 PM 70.0 °F 66.9 °F 90% 30.05 in 10.0 mi Calm Calm - 0.02 in Rain Light Rain
1:53 PM 70.0 °F 66.0 °F 87% 30.04 in 10.0 mi Variable 3.5 mph - 0.04 in Rain Light Rain
2:53 PM 71.1 °F 64.0 °F 78% 30.01 in 10.0 mi Variable 6.9 mph - 0.01 in Rain Light Rain
3:53 PM 72.0 °F 64.0 °F 76% 30.02 in 10.0 mi NNW 5.8 mph - 0.00 in   Partly Cloudy
4:23 PM 73.4 °F 64.4 °F 73% 30.00 in 10.0 mi Variable 3.5 mph - N/A   Partly Cloudy
4:53 PM 73.0 °F 64.0 °F 73% 30.02 in 10.0 mi Calm Calm - N/A   Partly Cloudy
5:53 PM 72.0 °F 64.9 °F 78% 30.04 in 10.0 mi Variable 3.5 mph - N/A   Clear
6:53 PM 71.1 °F 64.9 °F 81% 30.04 in 10.0 mi Variable 5.8 mph - N/A   Clear
7:53 PM 71.1 °F 66.0 °F 84% 30.07 in 10.0 mi NNE 4.6 mph - N/A   Clear
8:53 PM 71.1 °F 64.9 °F 81% 30.08 in 10.0 mi Variable 4.6 mph - N/A   Clear
9:53 PM 71.1 °F 64.9 °F 81% 30.10 in 10.0 mi Calm Calm - N/A   Clear
10:53 PM 72.0 °F 64.0 °F 76% 30.10 in 10.0 mi East 5.8 mph - N/A   Clear
11:53 PM 73.0 °F 63.0 °F 71% 30.09 in 10.0 mi East 8.1 mph 17.3 mph N/A   Clear